Wetterdaten: Woche 04.05.09 - 10.05.09 (KW19)
Datum Zeit Temperatur Luftfeuchte Luftdruck Niederschlag Windrichtung Wind
04.05.2009 00:00 10,2 C 95 % 1020,9 hPa 0,2 l/m N 1,9 km/h (1 Bft)
04.05.2009 01:00 9,6 C 95 % 1021,0 hPa 0,0 l/m NW 5,2 km/h (1 Bft)
04.05.2009 02:00 9,1 C 92 % 1020,9 hPa 0,0 l/m N-NW 11,0 km/h (2 Bft)
04.05.2009 03:00 8,7 C 92 % 1020,9 hPa 0,0 l/m N-NW 7,2 km/h (2 Bft)
04.05.2009 04:00 8,2 C 92 % 1021,1 hPa 0,8 l/m N-NW 7,8 km/h (2 Bft)
04.05.2009 05:00 7,8 C 95 % 1021,1 hPa 0,8 l/m N-NW 3,3 km/h (1 Bft)
04.05.2009 06:00 7,7 C 96 % 1021,3 hPa 1,2 l/m NW 5,1 km/h (1 Bft)
04.05.2009 07:00 7,7 C 96 % 1021,5 hPa 0,8 l/m N-NW 2,9 km/h (1 Bft)
04.05.2009 08:00 8,0 C 95 % 1021,8 hPa 0,4 l/m N 7,6 km/h (2 Bft)
04.05.2009 09:00 7,7 C 93 % 1022,2 hPa 1,4 l/m N 8,2 km/h (2 Bft)
04.05.2009 10:00 8,2 C 92 % 1022,4 hPa 0,0 l/m N 8,9 km/h (2 Bft)
04.05.2009 11:00 8,8 C 86 % 1022,4 hPa 0,0 l/m N 9,8 km/h (2 Bft)
04.05.2009 12:00 9,0 C 83 % 1022,4 hPa 0,0 l/m N-NO 11,7 km/h (2 Bft)
04.05.2009 13:00 9,7 C 76 % 1022,2 hPa 0,0 l/m N 12,6 km/h (3 Bft)
04.05.2009 14:00 9,7 C 70 % 1021,9 hPa 0,0 l/m W-NW 8,1 km/h (2 Bft)
04.05.2009 15:00 9,8 C 67 % 1021,9 hPa 0,0 l/m W 4,9 km/h (1 Bft)
04.05.2009 16:00 10,5 C 67 % 1021,7 hPa 0,0 l/m SW 7,4 km/h (2 Bft)
04.05.2009 17:00 10,7 C 68 % 1021,7 hPa 0,0 l/m SW 11,6 km/h (2 Bft)
04.05.2009 18:00 10,3 C 71 % 1021,9 hPa 0,0 l/m SW 9,0 km/h (2 Bft)
04.05.2009 19:00 9,9 C 72 % 1022,3 hPa 0,0 l/m W-SW 4,7 km/h (1 Bft)
04.05.2009 20:00 9,3 C 76 % 1022,7 hPa 0,0 l/m S-SW 3,9 km/h (1 Bft)
04.05.2009 21:00 7,8 C 86 % 1023,2 hPa 0,0 l/m SW 2,3 km/h (1 Bft)
04.05.2009 22:00 6,0 C 92 % 1023,7 hPa 0,0 l/m N 1,1 km/h (0 Bft)
04.05.2009 23:00 5,5 C 89 % 1023,8 hPa 0,0 l/m NW 3,3 km/h (1 Bft)
05.05.2009 00:00 5,7 C 79 % 1023,7 hPa 0,0 l/m NW 3,9 km/h (1 Bft)
05.05.2009 01:00 5,7 C 79 % 1023,6 hPa 0,0 l/m N 2,5 km/h (1 Bft)
05.05.2009 02:00 5,1 C 81 % 1023,1 hPa 0,0 l/m N 0,3 km/h (0 Bft)
05.05.2009 03:00 4,3 C 84 % 1023,0 hPa 0,0 l/m N 0,1 km/h (0 Bft)
05.05.2009 04:00 2,8 C 89 % 1023,0 hPa 0,0 l/m N 0,4 km/h (0 Bft)
05.05.2009 05:00 1,9 C 91 % 1022,8 hPa 0,0 l/m N 0,1 km/h (0 Bft)
05.05.2009 06:00 1,6 C 92 % 1023,3 hPa 0,0 l/m N 0,0 km/h (0 Bft)
05.05.2009 07:00 3,3 C 89 % 1023,8 hPa 0,0 l/m N 0,7 km/h (0 Bft)
05.05.2009 08:00 5,1 C 86 % 1024,2 hPa 0,0 l/m NO 2,4 km/h (1 Bft)
05.05.2009 09:00 6,8 C 82 % 1024,6 hPa 0,0 l/m SW 5,1 km/h (1 Bft)
05.05.2009 10:00 8,9 C 65 % 1024,4 hPa 0,0 l/m W-SW 13,4 km/h (3 Bft)
05.05.2009 11:00 10,1 C 53 % 1024,4 hPa 0,0 l/m W 17,7 km/h (3 Bft)
05.05.2009 12:00 10,8 C 46 % 1024,2 hPa 0,0 l/m W-SW 20,1 km/h (4 Bft)
05.05.2009 13:00 11,2 C 46 % 1023,9 hPa 0,0 l/m SW 21,2 km/h (4 Bft)
05.05.2009 14:00 12,1 C 45 % 1023,4 hPa 0,0 l/m W 23,8 km/h (4 Bft)
05.05.2009 15:00 11,9 C 49 % 1023,2 hPa 0,0 l/m W-SW 27,9 km/h (4 Bft)
05.05.2009 16:00 12,0 C 53 % 1022,9 hPa 0,0 l/m W 26,8 km/h (4 Bft)
05.05.2009 17:00 11,8 C 55 % 1022,8 hPa 0,0 l/m SW 24,3 km/h (4 Bft)
05.05.2009 18:00 11,5 C 59 % 1022,9 hPa 0,0 l/m W-SW 23,3 km/h (4 Bft)
05.05.2009 19:00 11,3 C 62 % 1022,9 hPa 0,0 l/m W-SW 20,6 km/h (4 Bft)
05.05.2009 20:00 10,7 C 67 % 1023,1 hPa 0,0 l/m SW 11,8 km/h (2 Bft)
05.05.2009 21:00 9,8 C 75 % 1023,2 hPa 0,2 l/m W-SW 10,5 km/h (2 Bft)
05.05.2009 22:00 9,0 C 82 % 1023,3 hPa 0,4 l/m W-SW 13,0 km/h (3 Bft)
05.05.2009 23:00 8,3 C 89 % 1023,1 hPa 0,4 l/m SW 9,4 km/h (2 Bft)
06.05.2009 00:00 8,0 C 92 % 1022,8 hPa 0,6 l/m W-SW 12,1 km/h (2 Bft)
06.05.2009 01:00 7,8 C 93 % 1022,3 hPa 0,6 l/m SW 13,6 km/h (3 Bft)
06.05.2009 02:00 7,8 C 94 % 1021,5 hPa 0,4 l/m SW 14,0 km/h (3 Bft)
06.05.2009 03:00 7,8 C 94 % 1021,0 hPa 0,0 l/m SW 15,4 km/h (3 Bft)
06.05.2009 04:00 7,9 C 94 % 1020,9 hPa 0,0 l/m W 14,4 km/h (3 Bft)
06.05.2009 05:00 8,2 C 92 % 1020,7 hPa 0,0 l/m SW 17,7 km/h (3 Bft)
06.05.2009 06:00 8,2 C 92 % 1020,5 hPa 0,0 l/m W-SW 17,0 km/h (3 Bft)
06.05.2009 07:00 8,5 C 91 % 1020,6 hPa 0,0 l/m SW 18,4 km/h (3 Bft)
06.05.2009 08:00 9,1 C 88 % 1020,6 hPa 0,0 l/m SW 19,7 km/h (3 Bft)
06.05.2009 09:00 10,2 C 83 % 1020,4 hPa 0,0 l/m W-SW 27,4 km/h (4 Bft)
06.05.2009 10:00 11,1 C 80 % 1020,3 hPa 0,0 l/m SW 30,4 km/h (5 Bft)
06.05.2009 11:00 12,2 C 77 % 1020,2 hPa 0,0 l/m SW 33,3 km/h (5 Bft)
06.05.2009 12:00 12,9 C 75 % 1020,1 hPa 0,0 l/m W-SW 29,9 km/h (5 Bft)
06.05.2009 13:00 14,0 C 71 % 1019,7 hPa 0,0 l/m W 29,0 km/h (5 Bft)
06.05.2009 14:00 14,7 C 67 % 1019,3 hPa 0,0 l/m W-SW 27,9 km/h (4 Bft)
06.05.2009 15:00 15,8 C 59 % 1019,0 hPa 0,0 l/m W-SW 28,4 km/h (4 Bft)
06.05.2009 16:00 16,0 C 53 % 1018,8 hPa 0,0 l/m W 27,2 km/h (4 Bft)
06.05.2009 17:00 16,1 C 53 % 1018,7 hPa 0,0 l/m W-SW 24,7 km/h (4 Bft)
06.05.2009 18:00 15,4 C 55 % 1018,7 hPa 0,0 l/m W 17,3 km/h (3 Bft)
06.05.2009 19:00 14,8 C 57 % 1018,6 hPa 0,0 l/m W-NW 14,9 km/h (3 Bft)
06.05.2009 20:00 13,7 C 61 % 1019,2 hPa 0,0 l/m W-NW 7,9 km/h (2 Bft)
06.05.2009 21:00 11,9 C 71 % 1019,5 hPa 0,0 l/m W-SW 4,3 km/h (1 Bft)
06.05.2009 22:00 9,6 C 82 % 1019,6 hPa 0,0 l/m SW 2,5 km/h (1 Bft)
06.05.2009 23:00 8,4 C 86 % 1019,8 hPa 0,0 l/m N 0,4 km/h (0 Bft)
07.05.2009 00:00 7,5 C 89 % 1019,6 hPa 0,0 l/m N 0,4 km/h (0 Bft)
07.05.2009 01:00 6,8 C 91 % 1019,6 hPa 0,0 l/m W-NW 2,3 km/h (1 Bft)
07.05.2009 02:00 6,0 C 93 % 1019,5 hPa 0,0 l/m N 0,0 km/h (0 Bft)
07.05.2009 03:00 5,4 C 94 % 1019,6 hPa 0,0 l/m N 0,0 km/h (0 Bft)
07.05.2009 04:00 4,8 C 95 % 1019,3 hPa 0,0 l/m N 0,0 km/h (0 Bft)
07.05.2009 05:00 4,3 C 95 % 1019,2 hPa 0,0 l/m N 0,0 km/h (0 Bft)
07.05.2009 06:00 4,1 C 95 % 1019,5 hPa 0,0 l/m N 0,0 km/h (0 Bft)
07.05.2009 07:00 6,0 C 92 % 1019,7 hPa 0,0 l/m N 0,0 km/h (0 Bft)
07.05.2009 08:00 9,4 C 85 % 1019,8 hPa 0,0 l/m SW 3,5 km/h (1 Bft)
07.05.2009 09:00 13,2 C 74 % 1019,7 hPa 0,0 l/m SO 6,3 km/h (2 Bft)
07.05.2009 10:00 15,8 C 63 % 1019,3 hPa 0,0 l/m SW 13,2 km/h (3 Bft)
07.05.2009 11:00 17,4 C 58 % 1018,9 hPa 0,0 l/m W-SW 18,8 km/h (3 Bft)
07.05.2009 12:00 18,8 C 48 % 1018,4 hPa 0,0 l/m W 18,9 km/h (3 Bft)
07.05.2009 13:00 19,8 C 41 % 1017,9 hPa 0,0 l/m W-SW 20,1 km/h (4 Bft)
07.05.2009 14:00 20,6 C 38 % 1017,3 hPa 0,0 l/m W-SW 18,9 km/h (3 Bft)
07.05.2009 15:00 21,5 C 36 % 1016,8 hPa 0,0 l/m SW 14,4 km/h (3 Bft)
07.05.2009 16:00 22,1 C 32 % 1016,4 hPa 0,0 l/m SW 15,4 km/h (3 Bft)
07.05.2009 17:00 22,4 C 32 % 1015,9 hPa 0,0 l/m W-SW 11,7 km/h (2 Bft)
07.05.2009 18:00 22,0 C 31 % 1015,7 hPa 0,0 l/m SW 8,9 km/h (2 Bft)
07.05.2009 19:00 20,4 C 38 % 1015,4 hPa 0,0 l/m SW 6,4 km/h (2 Bft)
07.05.2009 20:00 17,1 C 47 % 1015,3 hPa 0,0 l/m N 1,6 km/h (1 Bft)
07.05.2009 21:00 14,1 C 56 % 1015,2 hPa 0,0 l/m N 0,3 km/h (0 Bft)
07.05.2009 22:00 12,1 C 61 % 1015,3 hPa 0,0 l/m N 0,0 km/h (0 Bft)
07.05.2009 23:00 10,8 C 67 % 1015,1 hPa 0,0 l/m N 0,5 km/h (0 Bft)
08.05.2009 00:00 9,7 C 73 % 1014,8 hPa 0,0 l/m N 0,0 km/h (0 Bft)
08.05.2009 01:00 8,6 C 78 % 1014,4 hPa 0,0 l/m N 0,0 km/h (0 Bft)
08.05.2009 02:00 8,1 C 83 % 1014,4 hPa 0,0 l/m N 0,3 km/h (0 Bft)
08.05.2009 03:00 7,7 C 84 % 1014,6 hPa 0,0 l/m N 0,3 km/h (0 Bft)
08.05.2009 04:00 7,9 C 85 % 1014,7 hPa 0,0 l/m N 0,8 km/h (0 Bft)
08.05.2009 05:00 8,1 C 83 % 1014,6 hPa 0,0 l/m SW 1,7 km/h (1 Bft)
08.05.2009 06:00 9,0 C 81 % 1015,0 hPa 0,0 l/m S-SW 2,5 km/h (1 Bft)
08.05.2009 07:00 12,8 C 72 % 1016,0 hPa 0,0 l/m W 17,2 km/h (3 Bft)
08.05.2009 08:00 12,7 C 79 % 1015,8 hPa 0,0 l/m SO 8,2 km/h (2 Bft)
08.05.2009 09:00 13,6 C 80 % 1015,5 hPa 0,0 l/m S-SW 9,5 km/h (2 Bft)
08.05.2009 10:00 17,1 C 67 % 1015,0 hPa 0,0 l/m S-SW 21,3 km/h (4 Bft)
08.05.2009 11:00 19,1 C 58 % 1014,8 hPa 0,0 l/m SW 23,6 km/h (4 Bft)
08.05.2009 12:00 21,3 C 49 % 1014,4 hPa 0,0 l/m W 22,6 km/h (4 Bft)
08.05.2009 13:00 22,4 C 44 % 1014,2 hPa 0,0 l/m SW 25,8 km/h (4 Bft)
08.05.2009 14:00 22,5 C 45 % 1013,7 hPa 0,0 l/m W 22,4 km/h (4 Bft)
08.05.2009 15:00 22,1 C 47 % 1013,2 hPa 0,0 l/m W-SW 18,5 km/h (3 Bft)
08.05.2009 16:00 18,8 C 58 % 1014,3 hPa 0,8 l/m W-NW 26,6 km/h (4 Bft)
08.05.2009 17:00 16,2 C 71 % 1014,5 hPa 0,0 l/m NW 10,9 km/h (2 Bft)
08.05.2009 18:00 15,9 C 78 % 1015,8 hPa 0,0 l/m SW 11,0 km/h (2 Bft)
08.05.2009 19:00 14,7 C 86 % 1016,5 hPa 0,2 l/m W-SW 12,7 km/h (3 Bft)
08.05.2009 20:00 14,1 C 90 % 1016,7 hPa 3,2 l/m S-SW 5,3 km/h (1 Bft)
08.05.2009 21:00 13,3 C 94 % 1017,5 hPa 4,0 l/m S-SW 7,5 km/h (2 Bft)
08.05.2009 22:00 13,0 C 94 % 1018,6 hPa 2,2 l/m N-NO 8,6 km/h (2 Bft)
08.05.2009 23:00 12,2 C 94 % 1019,1 hPa 0,4 l/m N-NO 3,9 km/h (1 Bft)
09.05.2009 00:00 11,8 C 96 % 1019,5 hPa 0,0 l/m SW 3,7 km/h (1 Bft)
09.05.2009 01:00 11,6 C 97 % 1019,4 hPa 0,0 l/m S-SW 1,6 km/h (1 Bft)
09.05.2009 02:00 11,9 C 98 % 1019,3 hPa 0,0 l/m N 0,7 km/h (0 Bft)
09.05.2009 03:00 12,0 C 98 % 1019,2 hPa 0,0 l/m N 1,3 km/h (1 Bft)
09.05.2009 04:00 12,0 C 98 % 1018,9 hPa 0,0 l/m N 0,4 km/h (0 Bft)
09.05.2009 05:00 11,9 C 98 % 1018,6 hPa 0,0 l/m S-SW 2,3 km/h (1 Bft)
09.05.2009 06:00 11,5 C 98 % 1018,5 hPa 0,0 l/m N 0,9 km/h (0 Bft)
09.05.2009 07:00 12,1 C 98 % 1018,5 hPa 0,0 l/m W 1,5 km/h (1 Bft)
09.05.2009 08:00 13,6 C 94 % 1018,2 hPa 0,0 l/m N-NO 5,7 km/h (1 Bft)
09.05.2009 09:00 15,4 C 88 % 1017,9 hPa 0,0 l/m O-NO 6,0 km/h (2 Bft)
09.05.2009 10:00 17,4 C 74 % 1017,5 hPa 0,0 l/m O-NO 9,7 km/h (2 Bft)
09.05.2009 11:00 19,1 C 66 % 1016,8 hPa 0,0 l/m O 14,0 km/h (3 Bft)
09.05.2009 12:00 20,5 C 59 % 1016,2 hPa 0,0 l/m O 13,2 km/h (3 Bft)
09.05.2009 13:00 21,8 C 52 % 1015,7 hPa 0,0 l/m O 12,1 km/h (2 Bft)
09.05.2009 14:00 22,9 C 48 % 1014,9 hPa 0,0 l/m O 11,0 km/h (2 Bft)
09.05.2009 15:00 23,3 C 45 % 1014,2 hPa 0,0 l/m O-SO 9,6 km/h (2 Bft)
09.05.2009 16:00 23,5 C 47 % 1013,5 hPa 0,0 l/m O-NO 9,7 km/h (2 Bft)
09.05.2009 17:00 23,6 C 45 % 1012,6 hPa 0,0 l/m O 11,8 km/h (2 Bft)
09.05.2009 18:00 23,1 C 46 % 1012,3 hPa 0,0 l/m O-SO 10,9 km/h (2 Bft)
09.05.2009 19:00 21,9 C 52 % 1012,6 hPa 0,0 l/m O 9,6 km/h (2 Bft)
09.05.2009 20:00 14,2 C 81 % 1014,7 hPa 6,6 l/m W-NW 49,2 km/h (6 Bft)
09.05.2009 21:00 13,3 C 87 % 1014,6 hPa 1,8 l/m W-NW 19,9 km/h (4 Bft)
09.05.2009 22:00 12,8 C 91 % 1015,2 hPa 0,0 l/m O-SO 7,6 km/h (2 Bft)
09.05.2009 23:00 12,2 C 94 % 1015,4 hPa 0,0 l/m N 2,3 km/h (1 Bft)
10.05.2009 00:00 11,6 C 96 % 1015,7 hPa 0,0 l/m N 0,4 km/h (0 Bft)
10.05.2009 01:00 11,4 C 97 % 1015,7 hPa 0,0 l/m N 0,5 km/h (0 Bft)
10.05.2009 02:00 11,2 C 97 % 1015,9 hPa 0,0 l/m SO 1,1 km/h (0 Bft)
10.05.2009 03:00 10,7 C 97 % 1016,3 hPa 0,0 l/m N 0,5 km/h (0 Bft)
10.05.2009 04:00 10,2 C 97 % 1016,4 hPa 0,0 l/m N 0,5 km/h (0 Bft)
10.05.2009 05:00 9,6 C 98 % 1016,4 hPa 0,0 l/m N 0,0 km/h (0 Bft)
10.05.2009 06:00 9,6 C 98 % 1016,4 hPa 0,0 l/m N 0,3 km/h (0 Bft)
10.05.2009 07:00 10,8 C 98 % 1016,6 hPa 0,0 l/m SO 0,9 km/h (0 Bft)
10.05.2009 08:00 12,8 C 95 % 1016,6 hPa 0,0 l/m SO 2,5 km/h (1 Bft)
10.05.2009 09:00 15,6 C 85 % 1016,7 hPa 0,0 l/m SO 4,4 km/h (1 Bft)
10.05.2009 10:00 17,6 C 72 % 1016,9 hPa 0,0 l/m NO 5,7 km/h (1 Bft)
10.05.2009 11:00 19,1 C 61 % 1016,8 hPa 0,0 l/m NO 7,5 km/h (2 Bft)
10.05.2009 12:00 20,3 C 56 % 1016,7 hPa 0,0 l/m O-SO 7,6 km/h (2 Bft)
10.05.2009 13:00 21,2 C 50 % 1016,3 hPa 0,0 l/m NO 8,7 km/h (2 Bft)
10.05.2009 14:00 21,7 C 49 % 1015,9 hPa 0,0 l/m O-SO 10,1 km/h (2 Bft)
10.05.2009 15:00 22,3 C 46 % 1015,7 hPa 0,0 l/m NO 11,8 km/h (2 Bft)
10.05.2009 16:00 22,3 C 46 % 1015,3 hPa 0,0 l/m O-NO 10,9 km/h (2 Bft)
10.05.2009 17:00 21,7 C 50 % 1015,0 hPa 0,0 l/m NO 9,9 km/h (2 Bft)
10.05.2009 18:00 20,9 C 55 % 1014,3 hPa 0,0 l/m O-NO 10,5 km/h (2 Bft)
10.05.2009 19:00 20,2 C 58 % 1014,3 hPa 0,0 l/m O-NO 7,9 km/h (2 Bft)
10.05.2009 20:00 18,9 C 63 % 1014,4 hPa 0,0 l/m NO 4,5 km/h (1 Bft)
10.05.2009 21:00 17,1 C 71 % 1014,7 hPa 0,0 l/m N-NO 8,6 km/h (2 Bft)
10.05.2009 22:00 15,8 C 72 % 1015,0 hPa 0,0 l/m N-NO 10,8 km/h (2 Bft)
10.05.2009 23:00 14,6 C 77 % 1014,9 hPa 0,0 l/m N-NO 8,8 km/h (2 Bft)
Min-Datum _ 05.05.09 07.05.09 09.05.09 - - 04.05.09
_ Min-Zeit 06:15 17:00 19:45 - - 00:35
Minimum _ 1,4 C 29 % 1012,1 hPa - - 0,0 km/h (0 Bft)
Max-Datum _ 09.05.09 09.05.09 05.05.09 09.05.09 - 09.05.09
_ Max-Zeit 17:00 07:55 09:30 20:05 - 19:55
Maximum _ 24,1 C 100 % 1024,8 hPa 6,6 l/m - 61,2 km/h
O (7 Bft)
Durchschnitt _ 12,6 C 75 % 1018,7 hPa #27,4 l/m SW 9,9 km/h (2 Bft)